Orlando, FL

10:52 PM EST on February 11, 2016 (GMT -0500)
Orlando International

Weather History for KMCO - February, 2013

Change the Weather History Date:

Thursday, February 7, 2013

  Actual Average Record
Temperature  
Mean Temperature 75 °F 62 °F  
Max Temperature 83 °F 73 °F 86 °F (1904)
Min Temperature 66 °F 51 °F 19 °F (1895)
Degree Days  
Heating Degree Days 0 5  
Month to date heating degree days 41 35  
Since 1 July heating degree days 263 419  
Cooling Degree Days 10 2  
Month to date cooling degree days 13 14  
Year to date cooling degree days 114 59  
Growing Degree Days 24 (Base 50)    
Moisture  
Dew Point 60 °F    
Average Humidity 68    
Maximum Humidity 87    
Minimum Humidity 48    
Precipitation  
Precipitation 0.00 in 0.08 in 1.40 in (1971)
Month to date precipitation 0.00 0.58  
Year to date precipitation 0.24 2.93  
Sea Level Pressure  
Sea Level Pressure 30.00 in    
Wind  
Wind Speed 9 mph (SSE)    
Max Wind Speed 21 mph    
Max Gust Speed 26 mph    
Visibility 10 miles    
Events      
T = Trace of Precipitation, MM = Missing Value Source: NWS Daily Summary

Daily Weather History Graph

Daily Weather History Graph

Search for Another Location

Airport or City:

Trip Planner

Search our weather history database for the weather conditions in past years. The results will help you decide how hot, cold, wet, or windy it might be!

Date:

Astronomy

Feb. 07, 2013 Rise Set
Actual Time 7:09 AM EST 6:10 PM EST
Civil Twilight 6:44 AM EST 6:34 PM EST
Nautical Twilight 6:16 AM EST 7:02 PM EST
Astronomical Twilight 5:49 AM EST 7:30 PM EST
Moon 4:40 AM EST (2/7) 3:39 PM EST (2/7)
Length of Visible Light 11h 49m
Length of Day
11h 00m
Waning Crescent, 9% of the Moon is Illuminated
Feb 7
Waning Crescent
Feb 10
New
Feb 17
First Quarter
Feb 25
Full
Mar 4
Last Quarter

Hourly Weather History & Observations

Time (EST) Temp. Heat Index Dew Point Humidity Pressure Visibility Wind Dir Wind Speed Gust Speed Precip Events Conditions
12:53 AM 66.9 °F - 62.1 °F 84% 30.10 in 10.0 mi ESE 3.5 mph - N/A   Overcast
1:53 AM 66.9 °F - 61.0 °F 81% 30.09 in 10.0 mi SE 8.1 mph - N/A   Mostly Cloudy
2:53 AM 66.0 °F - 61.0 °F 84% 30.07 in 10.0 mi SE 5.8 mph - N/A   Mostly Cloudy
3:53 AM 66.0 °F - 61.0 °F 84% 30.07 in 10.0 mi SE 4.6 mph - N/A   Overcast
4:53 AM 66.0 °F - 61.0 °F 84% 30.07 in 10.0 mi SE 3.5 mph - N/A   Overcast
5:53 AM 66.9 °F - 61.0 °F 81% 30.08 in 10.0 mi SE 5.8 mph - N/A   Overcast
6:53 AM 66.9 °F - 60.1 °F 79% 30.08 in 10.0 mi SE 5.8 mph - N/A   Mostly Cloudy
7:53 AM 66.9 °F - 61.0 °F 81% 30.09 in 10.0 mi SE 4.6 mph - N/A   Mostly Cloudy
8:53 AM 71.1 °F - 61.0 °F 70% 30.08 in 10.0 mi SE 10.4 mph - N/A   Scattered Clouds
9:53 AM 73.9 °F - 60.1 °F 62% 30.06 in 10.0 mi SE 11.5 mph - N/A   Mostly Cloudy
10:53 AM 77.0 °F - 61.0 °F 58% 30.07 in 10.0 mi SSE 12.7 mph - N/A   Mostly Cloudy
11:53 AM 77.0 °F - 60.1 °F 56% 30.03 in 10.0 mi SSE 12.7 mph - N/A   Mostly Cloudy
12:53 PM 79.0 °F - 60.1 °F 52% 30.00 in 10.0 mi SE 12.7 mph - N/A   Mostly Cloudy
1:53 PM 79.0 °F - 60.1 °F 52% 29.97 in 10.0 mi South 11.5 mph - N/A   Mostly Cloudy
2:53 PM 80.1 °F 80.9 °F 60.1 °F 50% 29.94 in 10.0 mi South 11.5 mph 20.7 mph N/A   Mostly Cloudy
3:53 PM 80.1 °F 80.7 °F 59.0 °F 48% 29.91 in 10.0 mi South 15.0 mph 20.7 mph N/A   Mostly Cloudy
4:53 PM 79.0 °F - 57.9 °F 48% 29.92 in 10.0 mi South 13.8 mph - N/A   Mostly Cloudy
5:53 PM 75.9 °F - 59.0 °F 56% 29.90 in 10.0 mi SSE 6.9 mph - N/A   Mostly Cloudy
6:53 PM 73.9 °F - 60.1 °F 62% 29.93 in 10.0 mi South 6.9 mph - N/A   Mostly Cloudy
7:53 PM 75.0 °F - 55.9 °F 51% 29.93 in 10.0 mi SSW 12.7 mph - N/A   Overcast
8:53 PM 73.9 °F - 60.1 °F 62% 29.91 in 10.0 mi SSW 12.7 mph - N/A   Mostly Cloudy
9:53 PM 72.0 °F - 62.1 °F 71% 29.90 in 10.0 mi SSW 13.8 mph 24.2 mph N/A   Scattered Clouds
10:53 PM 71.1 °F - 63.0 °F 75% 29.91 in 10.0 mi SSW 10.4 mph - N/A   Partly Cloudy
11:53 PM 70.0 °F - 63.0 °F 78% 29.90 in 10.0 mi SW 9.2 mph - N/A   Partly Cloudy